• In India
  • List of Countries
  • For 7 days
  • Water Temperature
  • Satellite Maps
  • Weather Map
  • Weather Widgets
  • user-avatar
    Login

    Hourly Weather Nowy Dwór Gdański

    Today, 23 November, Thursday

    Time Temperature Precipitation Wind Pressure Humidity
    00:00 +2°C° 0 mm 6 mps 756 mmHg 95%
    01:00 +2°C° 0 mm 6 mps 756 mmHg 95%
    02:00 +2°C° 0 mm 6 mps 756 mmHg 95%
    03:00 +2°C° 0 mm 6 mps 756 mmHg 94%
    04:00 +2°C° 0 mm 6 mps 756 mmHg 93%
    05:00 +2°C° 0 mm 6 mps 756 mmHg 92%
    06:00 +2°C° 0 mm 6 mps 756 mmHg 92%
    07:00 +2°C° 0 mm 5 mps 756 mmHg 91%
    08:00 +3°C° 0 mm 6 mps 756 mmHg 89%
    09:00 +3°C° 0 mm 7 mps 756 mmHg 86%
    10:00 +4°C° 0 mm 7 mps 756 mmHg 84%
    11:00 +5°C° 0 mm 7 mps 756 mmHg 81%
    12:00 +5°C° 0 mm 8 mps 756 mmHg 78%
    13:00 +6°C° 0 mm 8 mps 756 mmHg 75%
    14:00 +6°C° 0 mm 8 mps 755 mmHg 77%
    15:00 +5°C° 0 mm 8 mps 755 mmHg 78%
    16:00 +5°C° 0 mm 8 mps 755 mmHg 80%
    17:00 +5°C° 0 mm 7 mps 755 mmHg 78%
    18:00 +5°C° 0 mm 7 mps 755 mmHg 77%
    19:00 +5°C° 0 mm 7 mps 755 mmHg 76%
    20:00 +5°C° 0 mm 7 mps 755 mmHg 77%
    21:00 +5°C° 0 mm 6 mps 756 mmHg 77%
    22:00 +5°C° 0 mm 6 mps 756 mmHg 78%
    23:00 +5°C° 0 mm 6 mps 756 mmHg 79%

    Tomorrow, 24 November, Friday

    Time Temperature Precipitation Wind Pressure Humidity
    00:00 +5°C° 0 mm 6 mps 756 mmHg 79%
    01:00 +5°C° 0 mm 6 mps 757 mmHg 80%
    02:00 +6°C° 0 mm 5 mps 757 mmHg 82%
    03:00 +6°C° 0 mm 5 mps 757 mmHg 84%
    04:00 +6°C° 0 mm 5 mps 757 mmHg 86%
    05:00 +5°C° 0 mm 5 mps 757 mmHg 88%
    06:00 +5°C° 0 mm 4 mps 758 mmHg 90%
    07:00 +5°C° 0 mm 4 mps 758 mmHg 92%
    08:00 +5°C° 0 mm 4 mps 758 mmHg 90%
    09:00 +6°C° 0 mm 4 mps 758 mmHg 89%
    10:00 +7°C° 0 mm 4 mps 758 mmHg 87%
    11:00 +7°C° 0 mm 5 mps 758 mmHg 85%
    12:00 +8°C° 0 mm 5 mps 757 mmHg 82%
    13:00 +9°C° 0 mm 6 mps 757 mmHg 79%
    14:00 +9°C° 0 mm 6 mps 756 mmHg 80%
    15:00 +8°C° 0 mm 7 mps 756 mmHg 80%
    16:00 +7°C° 0 mm 8 mps 755 mmHg 81%
    17:00 +7°C° 0.1 mm 8 mps 755 mmHg 81%
    18:00 +7°C° 0.1 mm 8 mps 755 mmHg 81%
    19:00 +7°C° 0.1 mm 8 mps 755 mmHg 81%
    20:00 +7°C° 0.1 mm 8 mps 755 mmHg 81%
    21:00 +7°C° 0.1 mm 8 mps 755 mmHg 81%
    22:00 +8°C° 0.1 mm 7 mps 755 mmHg 81%
    23:00 +8°C° 0 mm 7 mps 755 mmHg 81%

    Day after tomorrow, 25 November, Saturday

    Time Temperature Precipitation Wind Pressure Humidity
    00:00 +8°C° 0 mm 7 mps 756 mmHg 81%
    01:00 +8°C° 0 mm 7 mps 756 mmHg 81%
    02:00 +7°C° 0 mm 6 mps 757 mmHg 81%
    03:00 +5°C° 0 mm 6 mps 758 mmHg 82%
    04:00 +5°C° 0 mm 5 mps 758 mmHg 82%
    05:00 +4°C° 0 mm 4 mps 759 mmHg 85%
    06:00 +4°C° 0 mm 3 mps 759 mmHg 87%
    07:00 +3°C° 0 mm 3 mps 760 mmHg 90%
    08:00 +5°C° 0 mm 2 mps 760 mmHg 88%
    09:00 +5°C° 0 mm 2 mps 760 mmHg 86%
    10:00 +7°C° 0 mm 1 mps 760 mmHg 84%
    11:00 +6°C° 0 mm 2 mps 760 mmHg 83%
    12:00 +6°C° 0 mm 2 mps 759 mmHg 82%
    13:00 +5°C° 0 mm 3 mps 759 mmHg 81%
    14:00 +5°C° 0.2 mm 3 mps 758 mmHg 82%
    15:00 +5°C° 0.2 mm 4 mps 758 mmHg 82%
    16:00 +5°C° 0.2 mm 5 mps 757 mmHg 83%
    17:00 +5°C° 1 mm 5 mps 756 mmHg 84%
    18:00 +4°C° 1 mm 6 mps 755 mmHg 85%
    19:00 +4°C° 1 mm 7 mps 754 mmHg 87%
    20:00 +4°C° 1.2 mm 6 mps 753 mmHg 88%
    21:00 +5°C° 1.2 mm 5 mps 752 mmHg 90%
    22:00 +5°C° 1.2 mm 5 mps 751 mmHg 92%
    23:00 +5°C° 1 mm 4 mps 751 mmHg 93%

    26 November, Sunday

    Time Temperature Precipitation Wind Pressure Humidity
    00:00 +5°C° 1 mm 3 mps 750 mmHg 94%
    01:00 +5°C° 1 mm 3 mps 749 mmHg 95%
    02:00 +5°C° 0.4 mm 3 mps 749 mmHg 95%
    03:00 +5°C° 0.4 mm 3 mps 749 mmHg 95%
    04:00 +5°C° 0.4 mm 3 mps 748 mmHg 95%
    05:00 +5°C° 0.8 mm 5 mps 749 mmHg 93%
    06:00 +4°C° 0.8 mm 6 mps 749 mmHg 91%
    07:00 +4°C° 0.8 mm 7 mps 750 mmHg 89%
    08:00 +4°C° 0.9 mm 8 mps 751 mmHg 85%
    09:00 +4°C° 0.9 mm 8 mps 752 mmHg 82%
    10:00 +3°C° 0.9 mm 9 mps 753 mmHg 78%
    11:00 +3°C° 0.3 mm 9 mps 754 mmHg 76%
    12:00 +4°C° 0.3 mm 8 mps 755 mmHg 73%
    13:00 +4°C° 0.3 mm 8 mps 756 mmHg 71%
    14:00 +4°C° 0 mm 7 mps 756 mmHg 73%
    15:00 +3°C° 0 mm 6 mps 757 mmHg 75%
    16:00 +3°C° 0 mm 6 mps 758 mmHg 76%
    17:00 +2°C° 0 mm 6 mps 758 mmHg 77%
    18:00 +2°C° 0 mm 6 mps 758 mmHg 79%
    19:00 +1°C° 0 mm 6 mps 758 mmHg 80%
    20:00 +1°C° 0 mm 6 mps 759 mmHg 81%
    21:00 +1°C° 0 mm 6 mps 759 mmHg 81%
    22:00 +1°C° 0 mm 6 mps 759 mmHg 82%
    23:00 +1°C° 0 mm 6 mps 759 mmHg 83%

    27 November, Monday

    Time Temperature Precipitation Wind Pressure Humidity
    00:00 +1°C° 0 mm 6 mps 759 mmHg 83%
    01:00 0°C° 0 mm 7 mps 759 mmHg 84%
    02:00 0°C° 0 mm 7 mps 758 mmHg 83%
    03:00 0°C° 0 mm 7 mps 758 mmHg 83%
    04:00 0°C° 0 mm 7 mps 758 mmHg 82%
    05:00 0°C° 0 mm 7 mps 758 mmHg 82%
    06:00 0°C° 0 mm 7 mps 759 mmHg 83%
    07:00 0°C° 0 mm 8 mps 759 mmHg 83%
    08:00 0°C° 0 mm 8 mps 759 mmHg 81%
    09:00 0°C° 0 mm 8 mps 759 mmHg 80%
    10:00 +1°C° 0 mm 8 mps 759 mmHg 78%
    11:00 +2°C° 0 mm 7 mps 759 mmHg 78%
    12:00 +2°C° 0 mm 7 mps 759 mmHg 78%
    13:00 +3°C° 0 mm 7 mps 759 mmHg 77%
    14:00 +2°C° 0 mm 7 mps 759 mmHg 78%
    15:00 +2°C° 0 mm 7 mps 759 mmHg 80%
    16:00 +2°C° 0 mm 6 mps 759 mmHg 81%
    17:00 +2°C° 0 mm 6 mps 760 mmHg 82%
    18:00 +2°C° 0 mm 6 mps 760 mmHg 83%
    19:00 +2°C° 0 mm 6 mps 760 mmHg 83%
    20:00 +2°C° 0 mm 6 mps 760 mmHg 84%
    21:00 +1°C° 0 mm 6 mps 760 mmHg 84%
    22:00 +1°C° 0 mm 6 mps 760 mmHg 85%
    23:00 +1°C° 0 mm 6 mps 759 mmHg 85%

    28 November, Tuesday

    Time Temperature Precipitation Wind Pressure Humidity
    00:00 -1°C° 0 mm 6 mps 759 mmHg 85%
    01:00 0°C° 0 mm 5 mps 759 mmHg 86%
    02:00 -1°C° 0 mm 6 mps 759 mmHg 85%
    03:00 -2°C° 0 mm 6 mps 758 mmHg 85%
    04:00 -2°C° 0 mm 7 mps 758 mmHg 84%
    05:00 -2°C° 0 mm 7 mps 758 mmHg 82%
    06:00 -1°C° 0 mm 8 mps 757 mmHg 80%
    07:00 -1°C° 0 mm 8 mps 757 mmHg 78%
    08:00 -1°C° 0.1 mm 8 mps 756 mmHg 77%
    09:00 -1°C° 0.1 mm 9 mps 756 mmHg 75%
    10:00 0°C° 0.1 mm 9 mps 756 mmHg 74%
    11:00 0°C° 0.2 mm 9 mps 756 mmHg 75%
    12:00 0°C° 0.2 mm 8 mps 755 mmHg 76%
    13:00 0°C° 0.2 mm 8 mps 755 mmHg 77%
    14:00 0°C° 0.1 mm 8 mps 755 mmHg 78%
    15:00 0°C° 0.1 mm 7 mps 755 mmHg 80%
    16:00 0°C° 0.1 mm 7 mps 754 mmHg 82%
    17:00 0°C° 0 mm 7 mps 754 mmHg 83%
    18:00 0°C° 0 mm 7 mps 754 mmHg 84%
    19:00 +1°C° 0 mm 6 mps 754 mmHg 85%
    20:00 -1°C° 0 mm 6 mps 754 mmHg 85%
    21:00 -1°C° 0 mm 6 mps 754 mmHg 85%
    22:00 -1°C° 0 mm 6 mps 754 mmHg 85%
    23:00 -1°C° 0 mm 6 mps 754 mmHg 85%
    Show more